Date_and_time,latitude,longitude,wind_speed,RelWindDirFrom,WindDirFrom,air_pressure,air_temperature,relative_humidity,Temp,platform_speed_wrt_ground,air_pressure_at_mean_sea_level,platform_orientation
2019-10-23 23:50,50.630425,-96.9807433333333,11.6,18.0,291,991.42,1.9,65,5.82,0.0,1019.15,0.0
2019-10-24 00:00,50.6304283333333,-96.9807516666667,11.5,17.9,294,991.52,1.9,64,5.81,0.0,1019.26,90.0
2019-10-24 00:10,50.6304283333333,-96.980755,11.1,16.9,297,991.70,1.9,63,5.80,0.0,1019.46,90.0
2019-10-24 00:20,50.63043,-96.980755,10.6,16.4,299,991.92,1.8,63,5.80,0.0,1019.68,90.0
2019-10-24 00:30,50.6304316666667,-96.980755,10.0,14.4,300,992.14,1.8,63,5.79,0.0,1019.91,90.0
2019-10-24 00:40,50.6304333333333,-96.9807566666667,10.7,15.1,304,992.26,1.8,63,5.78,0.0,1020.04,90.0
2019-10-24 00:50,50.630435,-96.9807566666667,8.4,14.7,306,992.48,1.7,64,5.78,0.0,1020.28,90.0
2019-10-24 01:00,50.6304383333333,-96.9807516666667,9.8,13.5,304,992.50,1.7,64,5.78,0.0,1020.31,14.5
2019-10-24 01:10,50.630435,-96.9807616666667,9.1,13.7,304,992.67,1.6,64,5.79,0.0,1020.48,14.5
2019-10-24 01:20,50.6304283333333,-96.98077,8.6,12.3,303,992.80,1.5,65,5.80,0.0,1020.62,14.5
2019-10-24 01:30,50.6304516666667,-96.9807633333333,8.2,11.8,300,993.01,1.3,66,5.78,0.0,1020.85,14.5
2019-10-24 01:40,50.6304366666667,-96.980775,6.9,10.1,297,993.09,1.0,67,5.77,0.0,1020.95,14.5
2019-10-24 01:50,50.6304366666667,-96.98077,6.2,9.7,300,993.10,0.8,68,5.77,0.0,1020.98,14.5
2019-10-24 02:00,50.6304333333333,-96.9807466666667,5.2,8.2,289,993.22,0.6,69,5.76,0.0,1021.10,54.7
2019-10-24 02:10,50.6304316666667,-96.9807533333333,5.1,7.5,283,993.30,0.4,70,5.75,0.0,1021.20,54.7
2019-10-24 02:20,50.6304316666667,-96.98076,5.4,8.0,278,993.27,0.2,70,5.76,0.0,1021.19,54.7
2019-10-24 02:30,50.6304316666667,-96.9807616666667,4.9,7.0,275,993.36,-0.0,71,5.76,0.0,1021.29,54.7
2019-10-24 02:40,50.63043,-96.98076,4.9,7.6,272,993.41,-0.2,72,5.73,0.0,1021.35,54.7
2019-10-24 02:50,50.6304266666667,-96.98076,5.2,7.5,272,993.45,-0.5,73,5.70,0.0,1021.41,54.7
2019-10-24 03:00,50.630425,-96.9807483333333,5.0,7.0,270,993.47,-0.7,74,5.69,0.0,1021.44,90.0
2019-10-24 03:10,50.63046,-96.98078,5.6,7.6,268,993.47,-0.9,75,5.66,0.0,1021.46,90.0
2019-10-24 03:20,50.6304283333333,-96.9807466666667,5.4,7.5,273,993.55,-0.9,75,5.63,0.0,1021.56,90.0
2019-10-24 03:30,50.63043,-96.9807616666667,5.6,8.5,263,993.64,-1.1,76,5.62,0.0,1021.67,90.0
2019-10-24 03:40,50.6304283333333,-96.9807616666667,5.6,7.8,262,993.73,-1.1,75,5.60,0.0,1021.77,90.0
2019-10-24 03:50,50.63043,-96.98076,5.7,7.8,258,993.89,-1.1,75,5.58,0.0,1021.94,90.0
2019-10-24 04:00,50.6304283333333,-96.9807633333333,6.0,8.5,255,994.01,-1.0,73,5.58,0.0,1022.08,183.2
2019-10-24 04:10,50.63043,-96.9807616666667,5.7,7.7,262,994.00,-1.0,74,5.57,0.0,1022.08,183.2
2019-10-24 04:20,50.6304483333333,-96.9807566666667,5.8,7.8,263,994.06,-1.0,74,5.56,0.0,1022.16,183.2
2019-10-24 04:30,50.6304383333333,-96.9807733333333,5.8,8.4,261,994.22,-1.0,74,5.55,0.0,1022.32,183.2
2019-10-24 04:40,50.6304183333333,-96.9807683333333,6.8,9.7,259,994.37,-0.9,73,5.54,0.0,1022.49,183.2
2019-10-24 04:50,50.6304383333333,-96.980775,6.3,9.2,265,994.38,-0.8,73,5.53,0.0,1022.51,183.2
2019-10-24 05:00,50.63043,-96.980765,5.9,8.0,268,994.43,-0.9,74,5.53,0.0,1022.57,246.4
2019-10-24 05:10,50.63043,-96.9807666666667,6.1,8.1,273,994.56,-0.9,74,5.52,0.0,1022.71,246.4
2019-10-24 05:20,50.63043,-96.9807633333333,6.8,9.8,283,994.65,-0.8,73,5.52,0.0,1022.81,246.4
2019-10-24 05:30,50.6304316666667,-96.980785,7.5,10.5,284,994.69,-0.5,72,5.51,0.0,1022.83,246.4
2019-10-24 05:40,50.6304283333333,-96.98076,7.3,10.8,289,994.65,-0.4,71,5.52,0.0,1022.78,246.4
2019-10-24 05:50,50.630425,-96.9807616666667,7.8,11.1,297,994.62,-0.5,71,5.52,0.0,1022.75,246.4
2019-10-24 06:00,50.6304233333333,-96.9807616666667,7.4,10.6,293,994.74,-0.6,72,5.52,0.0,1022.88,270.0
2019-10-24 06:10,50.6304216666667,-96.9807616666667,6.8,9.7,294,994.85,-0.8,73,5.52,0.0,1023.00,270.0
2019-10-24 06:20,50.6304233333333,-96.980765,7.1,9.7,294,994.90,-0.8,72,5.52,0.0,1023.06,270.0
2019-10-24 06:30,50.6304233333333,-96.9807633333333,6.6,9.5,286,994.96,-0.9,73,5.52,0.0,1023.11,270.0
2019-10-24 06:40,50.6304233333333,-96.980765,6.0,9.9,293,995.00,-1.0,73,5.51,0.0,1023.16,270.0
2019-10-24 06:50,50.6304066666667,-96.98078,6.1,8.7,294,995.04,-1.1,73,5.51,0.0,1023.21,270.0
2019-10-24 07:00,50.630425,-96.9807766666667,6.5,9.3,294,995.06,-1.2,73,5.51,0.0,1023.24,270.0
2019-10-24 07:10,50.6304433333333,-96.9807533333333,6.8,10.3,284,995.10,-1.3,74,5.51,0.0,1023.28,270.0
2019-10-24 07:20,50.6304333333333,-96.9807533333333,5.8,8.7,278,995.19,-1.5,75,5.50,0.0,1023.37,270.0
2019-10-24 07:30,50.6303883333333,-96.9807566666667,6.2,8.3,286,995.22,-1.6,75,5.49,0.0,1023.40,270.0
2019-10-24 07:40,50.63042,-96.9807516666667,6.1,8.6,282,995.22,-1.7,76,5.48,0.0,1023.40,270.0
2019-10-24 07:50,50.6304216666667,-96.9807516666667,6.1,8.5,274,995.29,-1.9,77,5.47,0.0,1023.49,270.0
2019-10-24 08:00,50.6304183333333,-96.9807516666667,5.5,7.3,261,995.37,-2.1,78,5.46,0.0,1023.59,143.4
2019-10-24 08:10,50.63042,-96.9807566666667,5.9,7.3,259,995.43,-2.2,79,5.45,0.0,1023.67,143.4
2019-10-24 08:20,50.6304183333333,-96.980755,5.5,7.3,270,995.40,-2.4,80,5.43,0.0,1023.65,143.4
2019-10-24 08:30,50.6304183333333,-96.9807533333333,5.9,8.4,281,995.33,-2.4,79,5.42,0.0,1023.59,143.4
2019-10-24 08:40,50.63042,-96.9807533333333,5.8,7.7,283,995.28,-2.2,79,5.41,0.0,1023.53,143.4
2019-10-24 08:50,50.63042,-96.9807533333333,5.5,7.4,273,995.34,-2.4,79,5.39,0.0,1023.60,143.4
2019-10-24 09:00,50.6304216666667,-96.980755,5.8,8.0,258,995.44,-2.5,80,5.38,0.0,1023.72,360.0
2019-10-24 09:10,50.630425,-96.9808116666667,5.6,7.6,252,995.45,-2.7,81,5.38,0.0,1023.75,360.0
2019-10-24 09:20,50.630425,-96.9807833333333,5.7,7.2,252,995.45,-2.9,82,5.38,0.0,1023.77,360.0
2019-10-24 09:30,50.6304233333333,-96.9807766666667,6.2,8.5,253,995.57,-2.9,83,5.37,0.0,1023.89,360.0
2019-10-24 09:40,50.63042,-96.9807733333333,6.4,8.6,254,995.61,-2.8,82,5.37,0.0,1023.95,360.0
2019-10-24 09:50,50.63042,-96.98077,6.8,8.7,253,995.74,-2.9,82,5.35,0.0,1024.09,360.0
2019-10-24 10:00,50.6304166666667,-96.9807466666667,6.2,8.5,256,995.81,-3.0,83,5.33,0.0,1024.17,125.3
2019-10-24 10:10,50.6304166666667,-96.9807466666667,5.4,7.3,259,995.85,-3.1,84,5.32,0.0,1024.23,125.3
2019-10-24 10:20,50.6304266666667,-96.9807683333333,5.4,7.0,259,995.85,-3.2,84,5.31,0.0,1024.23,125.3
2019-10-24 10:30,50.6304266666667,-96.9807633333333,6.0,8.8,258,995.91,-3.2,84,5.31,0.0,1024.29,125.3
2019-10-24 10:40,50.6304116666667,-96.980745,6.3,8.4,255,996.05,-3.2,84,5.30,0.0,1024.44,125.3
2019-10-24 10:50,50.6304233333333,-96.9807616666667,5.3,7.6,258,996.05,-3.3,85,5.29,0.0,1024.45,125.3
2019-10-24 11:00,50.6304216666667,-96.9807566666667,5.2,7.0,259,996.08,-3.3,85,5.29,0.0,1024.49,347.4
2019-10-24 11:10,50.6304216666667,-96.9807583333333,5.5,7.5,254,996.24,-3.4,85,5.30,0.0,1024.67,347.4
2019-10-24 11:20,50.6304183333333,-96.9807616666667,5.3,6.9,253,996.31,-3.4,86,5.29,0.0,1024.75,347.4
2019-10-24 11:30,50.6304083333333,-96.9807733333333,5.6,7.4,245,996.31,-3.7,86,5.29,0.0,1024.76,347.4
2019-10-24 11:40,50.6304016666667,-96.9807583333333,5.4,6.9,244,996.30,-3.9,87,5.29,0.0,1024.76,347.4
2019-10-24 11:50,50.6304066666667,-96.980755,4.7,6.5,244,996.28,-3.9,88,5.29,0.0,1024.74,347.4
2019-10-24 12:00,50.6304083333333,-96.98076,4.4,5.7,253,996.36,-3.8,88,5.28,0.0,1024.83,360.0
2019-10-24 12:10,50.630395,-96.980775,4.4,6.2,253,996.43,-3.6,87,5.27,0.0,1024.90,360.0
2019-10-24 12:20,50.63043,-96.9807783333333,5.2,7.1,251,996.49,-3.6,87,5.27,0.0,1024.95,360.0
2019-10-24 12:30,50.6304316666667,-96.98079,5.7,7.3,245,996.68,-3.9,88,5.26,0.0,1025.16,360.0
2019-10-24 12:40,50.6304316666667,-96.98078,4.8,6.5,249,996.75,-3.9,89,5.25,0.0,1025.25,360.0
2019-10-24 12:50,50.6304333333333,-96.9807766666667,4.7,6.2,246,996.74,-3.9,89,5.25,0.0,1025.24,360.0
2019-10-24 13:00,50.6304166666667,-96.9807816666667,4.9,6.7,250,996.81,-3.7,89,5.24,0.0,1025.30,270.0
2019-10-24 13:10,50.6304266666667,-96.9807733333333,4.2,6.0,248,996.79,-3.6,89,5.25,0.0,1025.27,270.0
2019-10-24 13:20,50.6304283333333,-96.98076,3.6,6.0,251,996.80,-3.4,88,5.24,0.0,1025.29,270.0
2019-10-24 13:30,50.630445,-96.9807766666667,2.9,4.2,248,996.77,-3.2,88,5.23,0.0,1025.26,270.0
2019-10-24 13:40,50.63045,-96.980765,3.8,5.8,235,996.82,-3.3,89,5.24,0.0,1025.31,270.0
2019-10-24 13:50,50.6304283333333,-96.9807416666667,5.0,7.2,236,996.95,-3.3,90,5.24,0.0,1025.44,270.0
2019-10-24 14:00,50.6304483333333,-96.9807783333333,4.3,6.2,247,996.96,-3.0,90,5.24,0.0,1025.43,326.3
2019-10-24 14:10,50.6304383333333,-96.9807683333333,2.8,4.6,240,996.99,-2.7,89,5.24,0.0,1025.45,326.3
2019-10-24 14:20,50.6304333333333,-96.98076,3.2,4.6,231,997.02,-2.6,89,5.24,0.0,1025.48,326.3
2019-10-24 14:30,50.6304383333333,-96.98078,3.6,5.0,231,997.05,-2.3,90,5.24,0.0,1025.51,326.3
2019-10-24 14:40,50.6304083333333,-96.9807766666667,3.9,6.1,229,997.14,-2.1,89,5.25,0.0,1025.59,326.3
2019-10-24 14:50,50.6304133333333,-96.9807683333333,4.5,6.2,235,997.25,-2.0,88,5.26,0.0,1025.68,326.3
2019-10-24 15:00,50.6304133333333,-96.9807716666667,4.7,6.3,241,997.33,-1.9,89,5.26,0.0,1025.75,305.3
2019-10-24 15:10,50.6304183333333,-96.9807716666667,4.5,6.7,247,997.35,-1.7,88,5.26,0.0,1025.74,305.3
2019-10-24 15:20,50.63043,-96.98072,4.6,6.6,251,997.41,-1.5,87,5.26,0.0,1025.79,305.3
2019-10-24 15:30,50.6304433333333,-96.9807566666667,3.7,5.5,267,997.47,-1.2,87,5.25,0.0,1025.84,305.3
2019-10-24 15:40,50.63044,-96.9807533333333,3.9,6.7,259,997.52,-1.0,86,5.25,0.0,1025.88,305.3
2019-10-24 15:50,50.6304383333333,-96.9807566666667,3.7,5.7,254,997.42,-1.0,86,5.25,0.0,1025.76,305.3
2019-10-24 16:00,50.630435,-96.9807566666667,3.5,5.6,255,997.37,-0.9,85,5.25,0.0,1025.69,36.6
2019-10-24 16:10,50.630435,-96.98076,3.7,5.5,256,997.34,-0.7,84,5.25,0.0,1025.64,36.6
2019-10-24 16:20,50.6304333333333,-96.98076,4.2,6.6,258,997.35,-0.5,84,5.24,0.0,1025.63,36.6
2019-10-24 16:30,50.6304333333333,-96.9807566666667,4.4,6.2,252,997.34,-0.4,83,5.23,0.0,1025.61,36.6
2019-10-24 16:40,50.6304416666667,-96.980765,4.4,6.0,255,997.34,-0.3,82,5.22,0.0,1025.59,36.6
2019-10-24 16:50,50.6304316666667,-96.9807566666667,4.3,6.0,260,997.35,-0.2,82,5.24,0.0,1025.58,36.6
2019-10-24 17:00,50.6304383333333,-96.9807533333333,5.0,7.2,265,997.31,0.1,80,5.23,0.0,1025.53,103.7
2019-10-24 17:10,50.6304383333333,-96.9807483333333,5.0,8.6,262,997.31,0.2,79,5.22,0.0,1025.51,103.7
2019-10-24 17:20,50.6304366666667,-96.98075,5.5,8.2,264,997.32,0.4,78,5.22,0.0,1025.49,103.7
2019-10-24 17:30,50.6304366666667,-96.9807516666667,4.9,7.5,257,997.28,0.6,77,5.23,0.0,1025.43,103.7
2019-10-24 17:40,50.6304366666667,-96.9807533333333,5.0,8.1,253,997.18,0.7,76,5.25,0.0,1025.32,103.7
2019-10-24 17:50,50.6304366666667,-96.9807533333333,4.1,7.1,248,997.13,0.9,75,5.25,0.0,1025.25,103.7
2019-10-24 18:00,50.6304366666667,-96.9807533333333,3.9,6.0,255,996.97,1.2,73,5.25,0.0,1025.06,37.7
2019-10-24 18:10,50.6304283333333,-96.9807683333333,3.6,5.4,258,996.86,1.5,71,5.26,0.0,1024.92,37.7
2019-10-24 18:20,50.6304316666667,-96.9807483333333,2.5,5.3,247,996.78,1.9,69,5.28,0.0,1024.81,37.7
2019-10-24 18:30,50.63043,-96.9807566666667,2.7,5.5,280,996.70,2.2,67,5.28,0.0,1024.71,37.7
2019-10-24 18:40,50.63043,-96.9807616666667,1.6,5.0,271,996.56,2.6,65,5.28,0.0,1024.54,37.7
2019-10-24 18:50,50.63043,-96.98076,3.3,5.9,303,996.52,2.8,62,5.28,0.0,1024.47,37.7
2019-10-24 19:00,50.6304316666667,-96.98076,0.8,4.2,267,996.44,3.2,61,5.30,0.0,1024.37,142.0
2019-10-24 19:10,50.6304333333333,-96.98076,2.8,5.5,268,996.43,3.2,61,5.32,0.0,1024.35,142.0
2019-10-24 19:20,50.6304316666667,-96.98076,3.9,7.7,243,996.42,2.9,60,5.33,0.0,1024.35,142.0
2019-10-24 19:30,50.6304316666667,-96.9807616666667,4.7,8.3,251,996.39,2.8,58,5.33,0.0,1024.31,142.0
2019-10-24 19:40,50.6304316666667,-96.9807633333333,5.6,8.3,261,996.29,2.9,55,5.33,0.0,1024.20,142.0
2019-10-24 19:50,50.6304316666667,-96.9807633333333,4.3,8.0,257,996.14,2.9,54,5.33,0.0,1024.02,142.0
2019-10-24 20:00,50.6304333333333,-96.9807633333333,3.6,5.6,266,996.02,3.0,52,5.36,0.0,1023.88,216.6
2019-10-24 20:10,50.6304333333333,-96.980765,3.2,5.7,242,995.96,3.1,51,5.39,0.0,1023.80,216.6
2019-10-24 20:20,50.6304333333333,-96.980765,4.4,7.2,254,995.88,3.3,50,5.41,0.0,1023.69,216.6
2019-10-24 20:30,50.6304333333333,-96.980765,2.5,6.9,244,995.85,3.3,49,5.43,0.0,1023.64,216.6
2019-10-24 20:40,50.6304316666667,-96.980765,2.0,4.7,234,995.80,3.5,49,5.44,0.0,1023.56,216.6
2019-10-24 20:50,50.6304316666667,-96.980765,2.4,5.3,224,995.72,3.5,49,5.44,0.0,1023.46,216.6
2019-10-24 21:00,50.6304316666667,-96.980765,3.6,5.7,200,995.62,3.2,50,5.46,0.0,1023.38,240.8
2019-10-24 21:10,50.6304366666667,-96.980785,2.7,5.4,194,995.52,3.3,49,5.46,0.0,1023.28,240.8
2019-10-24 21:20,50.6304366666667,-96.9807716666667,1.2,3.7,129,995.41,4.5,47,5.46,0.0,1023.11,240.8
2019-10-24 21:30,50.6304383333333,-96.9807683333333,2.8,5.7,127,995.36,4.6,48,5.47,0.0,1023.05,240.8
2019-10-24 21:40,50.630435,-96.9807633333333,3.7,8.9,142,995.34,4.8,49,5.47,0.0,1023.02,240.8
2019-10-24 21:50,50.6304333333333,-96.980765,6.1,8.6,190,995.33,3.7,49,5.48,0.0,1023.06,240.8
2019-10-24 22:00,50.630405,-96.9807716666667,5.4,8.6,194,995.27,3.3,51,5.48,0.0,1023.02,360.0
2019-10-24 22:10,50.6304166666667,-96.9807666666667,7.0,9.3,179,995.20,3.1,53,5.48,0.0,1022.94,360.0
2019-10-24 22:20,50.6304183333333,-96.980765,7.1,10.8,169,995.03,3.2,52,5.49,0.0,1022.77,360.0
2019-10-24 22:30,50.63044,-96.9807516666667,6.0,7.9,169,994.99,3.3,52,5.50,0.0,1022.70,360.0
2019-10-24 22:40,50.6304233333333,-96.98076,6.8,7.9,157,994.90,3.0,53,5.51,0.0,1022.63,360.0
2019-10-24 22:50,50.6304216666667,-96.9807583333333,5.9,7.7,162,994.87,3.0,55,5.51,0.0,1022.61,360.0
2019-10-24 23:00,50.630425,-96.9807583333333,5.9,8.0,164,994.85,3.0,56,5.52,0.0,1022.58,131.7
2019-10-24 23:10,50.6304266666667,-96.9807583333333,7.7,9.5,168,994.89,2.5,60,5.51,0.0,1022.59,131.7
2019-10-24 23:20,50.6304283333333,-96.9807583333333,8.0,9.4,160,994.88,2.4,62,5.51,0.0,1022.58,131.7
2019-10-24 23:30,50.63043,-96.9807583333333,7.7,9.3,164,994.78,2.4,62,5.50,0.0,1022.47,131.7
